Tracking 29487 objects as of 11-Sep-2024
HD Live streaming from Space Station
objects crossing your sky now

FENGYUN 1C DEB

Track FENGYUN 1C DEB now!
10-day predictions


NORAD ID: 30867
Int'l Code: 1999-025AXD
Perigee: 794.7 km
Apogee: 872.7 km
Inclination: 97.9 °
Period: 101.4 minutes
Semi major axis: 7204 km
RCS: 0.0166 m2 (small)
Launch date: May 10, 1999
Source: People's Republic of China (PRC)
Launch site: Taiyaun Space Center, China (TSC)

Note: This is SATELLITE DEBRIS
Your satellite tracking list
Your tracking list is empty




NASA's NSSDC Master Catalog

Two Line Element Set (TLE):
1 30867U 99025AXD 24254.33019921  .00019860  00000-0  92597-2 0  9992
2 30867  97.8665 202.2028 0054140 279.7467 234.2386 14.19635537900101
Source of the keplerian elements: AFSPC